Flag for Poland Weather past 2 weeks in Chorzów, Poland

Now
64 °F

Clear.


Feels Like: 64 °F
Forecast: 54 / 88 °F
Wind: 3 mph from Southeast

Location: Katowice Airport

Current Time: Jul 6, 2015 at 5:02:05 AM

Latest Report: Jul 6, 2015 at 4:30 AM


Visibility: 10 mi

Pressure: 30.01 "Hg

Humidity: 78%

Dew point: 57 °F

Location of ChorzówLocation

Historic Weather in Chorzów — Graph

°F

Chorzów temperature yesterday

Maximum temperature yesterday: 91 °F (at 2:30 PM)
Minimum temperature yesterday: 61 °F (at 4:30 AM)
Average temperature yesterday: 78 °F

Past Weeks' High & Low Weather Summary

 TemperatureHumidityPressure
High91 °F (Jul 5, 2:30 PM)100% (Jun 21, 4:00 AM)30.39 "Hg (Jun 21, 4:00 AM)
Low43 °F (Jun 25, 3:30 AM)27% (Jul 5, 5:00 PM)29.74 "Hg (Jun 23, 3:30 AM)
Average63 °F71%30.11 "Hg
* Reported Jun 21 4:00 AM — Jul 6 4:00 AM, Chorzów, Weather by CustomWeather, © 2015

Note: Actual official high and low records may vary slightly from our data, if they occured in-between our weather recording intervals... More about our weather records

Advertising

Chorzów weather history for previous 24 hours

 ConditionsComfort  
Time TempWeatherWind HumidityBarometerVisibility
4:00 AM
Mon, Jul 6
66 °FClear.2 mph78%30.01 "Hg10 mi
3:30 AM66 °FPassing clouds.5 mph78%30.01 "HgN/A
3:00 AM63 °FClear.2 mph83%30.01 "Hg10 mi
2:30 AM64 °FClear.2 mph78%29.98 "Hg10 mi
2:00 AM66 °FClear.6 mph78%29.98 "Hg10 mi
1:30 AM66 °FClear.5 mph73%30.01 "Hg10 mi
1:00 AM66 °FClear.7 mph73%30.01 "Hg10 mi
12:30 AM68 °FClear.6 mph69%30.01 "Hg10 mi
12:00 AM68 °FClear.7 mph69%30.01 "Hg10 mi
11:30 PM
Sun, Jul 5
70 °FClear.5 mph64%30.01 "Hg10 mi
11:00 PM73 °FClear.7 mph53%30.01 "Hg10 mi
10:30 PM72 °FClear.2 mph57%30.01 "Hg10 mi
10:00 PM72 °FClear.6 mph65%30.01 "Hg10 mi
9:30 PM73 °FSunny.3 mph61%30.01 "Hg10 mi
9:00 PM77 °FSunny.2 mph54%30.01 "Hg10 mi
8:30 PM81 °FSunny.3 mph48%30.01 "Hg10 mi
8:00 PM86 °FSunny.3 mph38%30.01 "Hg10 mi
7:30 PM88 °FSunny.5 mph33%30.01 "Hg10 mi
7:00 PM90 °FSunny.2 mph31%30.01 "Hg10 mi
6:30 PM90 °FPassing clouds.6 mph27%30.04 "HgN/A
6:00 PM90 °FSunny.2 mph31%30.04 "Hg10 mi
5:30 PM88 °FPassing clouds.6 mph31%30.04 "HgN/A
5:00 PM90 °FPassing clouds.8 mph27%30.04 "HgN/A
4:30 PM91 °FSunny.7 mph28%30.04 "Hg10 mi
4:00 PM91 °FSunny.3 mph28%30.04 "Hg10 mi
3:30 PM91 °FPassing clouds.5 mph30%30.04 "HgN/A
3:00 PM90 °FSunny.3 mph29%30.07 "Hg10 mi
2:30 PM91 °FSunny.5 mph30%30.07 "Hg10 mi
2:00 PM90 °FPassing clouds.6 mph29%30.07 "HgN/A
1:30 PM90 °FSunny.5 mph33%30.07 "Hg10 mi
1:00 PM90 °FPassing clouds.5 mph31%30.07 "HgN/A
12:30 PM88 °FPassing clouds.5 mph33%30.09 "HgN/A
12:00 PM88 °FPassing clouds.6 mph33%30.09 "HgN/A
11:30 AM88 °FPassing clouds.3 mph33%30.09 "HgN/A
11:00 AM86 °FSunny.3 mph38%30.09 "Hg10 mi
10:30 AM84 °FSunny.2 mph45%30.09 "Hg10 mi
10:00 AM82 °FSunny.2 mph48%30.09 "Hg10 mi
9:30 AM79 °FPassing clouds.3 mph51%30.09 "HgN/A
9:00 AM77 °FPassing clouds.5 mph54%30.09 "HgN/A
8:30 AM77 °FSunny.5 mph54%30.09 "Hg10 mi
8:00 AM75 °FPassing clouds.6 mph54%30.12 "HgN/A
7:30 AM75 °FSunny.1 mph57%30.12 "Hg10 mi
7:00 AM72 °FSunny.2 mph61%30.12 "Hg10 mi
6:30 AM68 °FSunny.3 mph73%30.12 "Hg10 mi
5:30 AM61 °FClear.5 mph88%30.12 "Hg10 mi
5:00 AM61 °FClear.3 mph88%30.12 "Hg10 mi
Weather by CustomWeather, © 2015

See weather overviewHow to use our weather pages